COSMOS 2251 DEB, 37960

Orbit data source: Space-Track

COSMOS 2251 DEB, 37960 is space debris in LEO originally from a launch on Wed, 16 Jun 1993 UTC launched from the Plesetsk Missile And Space Complex (PKMTR). The debris from Iridium 33, an American commercial communications satellite, has been tracked extensively since its accidental collision with the defunct Russian satellite Cosmos 2251 in 2009. This event, occurring at high speed in low Earth orbit (LEO), generated thousands of pieces of space debris, significantly increasing the risk of further collisions. The Iridium 33 debris cloud has impacted space traffic management and orbital debris mitigation strategies, making it a subject of ongoing study in space situational awareness.

Loading next visibility...
Identifier
37960, 1993-036BPK
Orbit
LEO
Country
Flag of CISCIS
Related business
Manufacturer
Unknown
Mission
Spacecraft
Bus & Motor
Unknown
Mass
Unknown
Launch date (UTC)
1993-06-16 (33 years ago)
Launch vehicle
Unknown
Launch site
Plesetsk Missile And Space Complex (PKMTR)
Object type
Payload
Rocket body
Debris
Shape & HBR
Unknown shape, 0.1 m
Radar Cross Section
Medium (>0.1 m² and <1 m²)

Expand to show TLE details & history
Last TLE update: 4 days ago

TLE from 4 days ago
0 COSMOS 2251 DEB
1 37960U 93036BPK 26165.90057265  .00001428  00000-0  64018-3 0  9997
2 37960  74.0590 223.9474 0246615 198.9415 160.2431 14.08518549799988
Epoch: 2026-06-14T21:36Z
TLE epoch observation values (Epoch: 2026-06-14T21:36:49.476Z)
Latitude
-0.00002°
Longitude
-3.45343°
Altitude
1,035.638 km
Speed
7.248 km/s
True Right ascension
14h 55m 47s
True Declination
0° 00' 00"
Sunlit
Object was in full shadow at epoch
Visualization orbit readout
Latitude
Unknown
Longitude
Unknown
Altitude
Unknown
Speed
Unknown
Apparent Right ascension
Unknown
Apparent Declination
Unknown
Sunlit
N/A
Visualization observer readout
Local Sidereal Time
00:38:39
Azimuth
Unknown
Elevation
Unknown
Doppler factor
Unknown
Orbital elements
Apogee altitude
1,040.651 km
Perigee altitude
683.541 km
Semi-major axis
7,240.233 km
Eccentricity
0.02466
Inclination
74.059°
RAAN
223.9474°
Arg. of periapsis
198.9415°
True anomaly
161.17137°
Mean anomaly
160.2431°
Eccentric anomaly
160.70989°
Mean motion
3.52301 °/min
Orbital period
102.19 mins
BSTAR
0.00064018

Documentation

Showing up to 5 results
|